Location: Poughquag
(41.6090°N, 73.6820°W)
Time: 12:49:27
(UTC-04:00)

S-56A Canister/Altair - Pass Details

Date: 01 June 2020
Orbit: 633 x 2499 km, 38.9° (Epoch: 06 July)

Event Time Altitude Azimuth Distance (km) Brightness Sun altitude
Rises 08:43:13 0° 276° (W) 3,933 10.7 34.9°
Reaches altitude 10° 08:45:34 10° 273° (W) 3,175 10.3 35.3°
Maximum altitude 08:53:38 68° 193° (SSW) 1,731 9.8 36.8°
Drops below altitude 10° 09:05:53 10° 114° (ESE) 4,672 12.6 39.1°
Sets 09:10:06 0° 113° (ESE) 5,878 12.8 39.9°
